Tracking 29892 objects as of 21-Nov-2024
HD Live streaming from Space Station
objects crossing your sky now

STARLINK-31390

Track STARLINK-31390 now!
10-day predictions
STARLINK-31390 is classified as:


NORAD ID: 58937
Int'l Code: 2024-027G
Perigee: 481.5 km
Apogee: 483.4 km
Inclination: 53.2 °
Period: 94.1 minutes
Semi major axis: 6853 km
RCS: Unknown
Launch date: February 10, 2024
Source: United States (US)
Launch site: AIR FORCE WESTERN TEST RANGE (AFWTR)
Your satellite tracking list
Your tracking list is empty




NASA's NSSDC Master Catalog

Two Line Element Set (TLE):
1 58937U 24027G   24324.58185565 -.00002054  00000-0 -57317-4 0  9995
2 58937  53.1602 356.7070 0001393 102.4794 257.6362 15.30156526 44421
Source of the keplerian elements: AFSPC